www.pogodaiklimat.ru

Погода и климат >> Архив погоды >> Франция >> Булонь-сюр-Мер


ПОГОДА в Булонь-сюр-Мере

  • Прогноз погоды в Булонь-сюр-Мере
  • Монитор погоды в Булонь-сюр-Мере

АРХИВ ПОГОДЫ в Булонь-сюр-Мере

Время (UTC), дата Ветер
(напр.,м/с)
 
Видим.   Явления Облачность Т
(С)
Тd
(С)
f
(%)
Тe
(С)
Тes
(С)
Комфортность P
(гПа)
Po
(гПа)
Тmin
(С)
Tmax
(С)
R
(мм)
R24
(мм)
S
(см)
22 18.08 З 6-10
{10}
н/о н/о +16.4 +12.4 77 +15 +15 1011.2 1003.2
23 18.08 З 5-8
{8}
н/о н/о +16.3 +12.5 78 +15 +15 1011.7 1003.7
00 19.08 З 5-8
{9}
12 км 8/8 1000 м
[Cu Sc]
+16.3 +12.6 79 +15 +15 1012.1 1004.1
01 19.08 З 5-8
{8}
н/о н/о +16.4 +12.7 79 +16 +16 1012.4 1004.4
02 19.08 З 5-7
{8}
н/о н/о +16.3 +12.1 76 +15 +15 1012.7 1004.7
03 19.08 ЮЗ 5-8
{8}
12 км 8/8 1000 м
[Cu Sc]
+16.1 +12.1 77 +15 +15 1012.7 1004.7
04 19.08 З 5-8
{8}
н/о н/о +16.1 +11.7 75 +15 +15 1012.9 1004.9
05 19.08 ЮЗ 5-8
{8}
н/о н/о +16.1 +11.7 75 +15 +15 1013.5 1005.4
06 19.08 ЮЗ 5-15
{15}
н/о н/о +16.2 +11.6 74 +15 +15 1014.0 1005.9 +16.0 +16.8
07 19.08 З 5-7
{8}
н/о н/о +16.4 +12.2 76 +16 +16 1014.3 1006.2
08 19.08 З 5-7
{8}
н/о н/о +16.6 +11.9 74 +16 +16 1014.6 1006.6
09 19.08 ЮЗ 5-7
{8}
9000 м 8/8 900 м
[Sc diur, vesp]
+17.1 +12.0 72 +16 +17 1015.2 1007.2
10 19.08 ЮЗ 6-8
{8}
н/о н/о +17.5 +11.7 69 +17 +17 1015.8 1007.8
11 19.08 ЮЗ 6-8
{8}
н/о н/о +17.7 +11.3 66 +17 +17 1016.2 1008.2
12 19.08 ЮЗ 6-8
{8}
13 км 9/8 800 м
[Cu med, cong Ac As]
+17.9 +12.8 72 +17 +18 1016.7 1008.7
13 19.08 ЮЗ 6-9
{9}
н/о н/о +17.8 +12.7 72 +17 +17 1017.1 1009.1
14 19.08 ЮЗ 6-8
{9}
н/о н/о +18.0 +12.4 70 +18 +18 1017.5 1009.5
15 19.08 ЮЗ 6-8
{9}
н/о н/о +18.1 +12.1 68 +18 +18 1017.7 1009.7
16 19.08 ЮЗ 6-8
{8}
н/о н/о +17.9 +11.9 68 +17 +17 1017.8 1009.8
17 19.08 ЮЗ 5-9
{9}
н/о н/о +17.6 +11.8 69 +17 +17 1018.0 1010.0
18 19.08 З 5-14
{16}
15 км 4/4 400 м
[Cu med, cong]
+17.0 +12.3 74 +16 +17 1018.3 1010.2 +16.2 +18.2
19 19.08 З 5-7
{8}
н/о н/о +16.6 +12.1 75 +16 +16 1018.7 1010.6
20 19.08 З 4-7
{8}
н/о н/о +16.5 +12.5 77 +16 +16 1019.4 1011.3
21 19.08 З 4-6
{7}
н/о н/о +16.2 +12.2 77 +16 +16 1019.7 1011.6
22 19.08 З 4-6
{6}
н/о н/о +16.2 +12.7 80 +16 +16 1019.9 1011.8
23 19.08 З 4-6
{7}
н/о н/о +16.1 +12.8 81 +15 +15 1020.2 1012.1
00 20.08 З 4-6
{6}
15 км 6/6 900 м
[Cu hum]
+16.3 +13.4 83 +16 +16 1020.3 1012.2
01 20.08 З 4-6
{6}
н/о н/о +16.3 +13.4 83 +16 +16 1020.3 1012.2
02 20.08 ЮЗ 4-5
{6}
н/о н/о +16.3 +13.6 84 +16 +16 1020.2 1012.1
03 20.08 ЮЗ 4-5
{6}
н/о н/о +16.0 +13.3 84 +15 +15 1020.2 1012.1
04 20.08 З 4-6
{6}
н/о н/о +15.1 +12.2 83 +14 +14 1020.3 1012.2
05 20.08 З 3-4
{5}
н/о {дождь} н/о +15.5 +11.7 78 +15 +15 1020.9 1012.8 0.6
06 20.08 З 3
{8}
н/о {дождь} н/о +15.3 +11.5 78 +15 +15 1021.8 1013.7 +14.3 +17.1 0.6
07 20.08 З 2-3
{4}
н/о н/о +15.3 +11.3 77 +15 +15 1022.3 1014.2
08 20.08 З 3-4
{4}
н/о н/о +16.0 +12.0 77 +16 +16 1022.8 1014.7
09 20.08 З 3
{9}
17 км 8/6 800 м
[Cu med, cong Ac cuf]
+16.4 +11.8 74 +16 +18 1023.2 1015.1
10 20.08 З 3-5
{5}
н/о н/о +17.0 +11.5 70 +17 +17 1023.4 1015.3
11 20.08 З 3-5
{5}
н/о н/о +17.0 +12.3 74 +17 +17 1023.6 1015.5
12 20.08 З 3-4
{5}
19 км 4/3 800 м
[Cu med, cong Cc]
+18.0 +11.8 67 +18 +27 1024.1 1016.0
13 20.08 З 3-5
{5}
н/о н/о +18.2 +11.0 63 +19 +19 1024.4 1016.3
14 20.08 ЮЗ 4-6
{6}
н/о н/о +17.7 +11.9 69 +18 +18 1024.7 1016.6
15 20.08 ЮЗ 8-6
{12}
22 км 3/3 400 м
[Cu hum]
+17.8 +10.7 63 +17 +18 1024.9 1016.8
16 20.08 З 7-6
{12}
н/о н/о +17.9 +11.7 67 +17 +17 1025.2 1017.1
17 20.08 З 6-5
{12}
н/о н/о +17.5 +11.5 68 +17 +17 1025.5 1017.4
18 20.08 З 3
{11}
15 км 3/3 400 м
[Cu hum]
+16.8 +11.7 72 +17 +17 1025.8 1017.7 +15.2 +18.5
19 20.08 З 3-5
{5}
н/о н/о +16.1 +12.3 78 +16 +16 1026.4 1018.2
20 20.08 З 3-5
{5}
н/о н/о +16.1 +12.1 77 +16 +16 1026.8 1018.6
21 20.08 З 3-4
{5}
17 км 1/1 800 м
[St]
+16.1 +12.8 81 +16 +16 1027.1 1018.9
22 20.08 З 3-4
{5}
н/о н/о +16.2 +13.5 84 +16 +16 1027.3 1019.1
23 20.08 З 3-5
{5}
н/о н/о +16.3 +14.1 87 +16 +16 1027.3 1019.1
00 21.08 З 2-3
{5}
н/о н/о +16.1 +14.1 88 +16 +16 1027.5 1019.3
01 21.08 ЮЗ 1-2
{3}
н/о н/о +15.3 +13.1 87 +17 +17 1027.5 1019.3
02 21.08 ЮВ 1-2
{2}
н/о н/о +14.3 +12.8 91 +15 +15 1027.5 1019.3
03 21.08 ЮВ 1-2
{2}
н/о н/о +14.0 +12.9 93 +14 +14 1027.4 1019.2
04 21.08 ЮВ 1-2
{2}
н/о н/о +13.4 +12.5 94 +13 +13 1027.6 1019.4
05 21.08 ЮВ 1-1
{2}
н/о н/о +13.5 +12.7 95 +14 +14 1028.0 1019.8
06 21.08 ЮВ 1
{3}
7000 м 3/0
[Ci fib]
+14.6 +13.5 93 +15 +16 1028.3 1020.1 +13.3 +16.8
07 21.08 Ю 1-1
{2}
н/о н/о +16.0 +13.7 86 +17 +17 1028.5 1020.3
08 21.08 Ю 1-1
{1}
н/о н/о +18.2 +13.7 75 +20 +20 1028.6 1020.5
09 21.08 З 1-2
{2}
8000 м 8/8 800 м
[Cu hum As op]
+17.5 +14.2 81 +19 +20 1028.6 1020.5
10 21.08 З 2-3
{3}
н/о н/о +18.0 +13.7 76 +19 +19 1028.5 1020.4
11 21.08 ЮЗ 2-4
{4}
н/о н/о +18.0 +13.3 74 +19 +19 1028.2 1020.1
12 21.08 ЮЗ 2-3
{4}
10 км 8/8 800 м
[Cu hum As op]
+18.0 +12.2 69 +19 +21 1027.9 1019.8
13 21.08 З 2-3
{4}
н/о н/о +18.3 +13.2 72 +19 +19 1027.7 1019.6
14 21.08 З 2-3
{3}
н/о н/о +18.4 +12.8 70 +20 +20 1027.2 1019.1
15 21.08 З 2-3
{3}
15 км 1/1 800 м
[St]
+18.6 +13.9 74 +20 +27 1026.9 1018.8
16 21.08 З 2-3
{3}
н/о н/о +18.5 +14.0 75 +20 +20 1026.9 1018.8
17 21.08 З 2-2
{3}
н/о н/о +18.3 +13.4 73 +19 +19 1026.5 1018.4
18 21.08 З 1-1
{2}
н/о н/о +17.7 +13.2 75 +19 +19 1026.2 1018.1 +14.6 +18.9
19 21.08 С 1-1
{2}
н/о н/о +16.4 +12.9 80 +18 +18 1026.3 1018.2
20 21.08 В 1-2
{2}
н/о н/о +16.2 +12.7 80 +17 +17 1026.6 1018.4
21 21.08 В 1-1
{2}
н/о н/о +16.0 +12.0 77 +17 +17 1026.5 1018.3
22 21.08 ЮВ 1-1
{2}
н/о н/о +14.8 +12.1 84 +15 +15 1026.4 1018.2
23 21.08 ЮВ 1-1
{1}
н/о н/о +14.5 +11.6 83 +15 +15 1026.3 1018.1
00 22.08 ЮВ 1-1
{1}
н/о н/о +14.1 +11.6 85 +15 +15 1026.3 1018.1
01 22.08 ЮВ 1-1
{1}
н/о н/о +13.9 +11.9 88 +14 +14 1025.9 1017.7
02 22.08 ЮВ 1-2
{2}
н/о н/о +13.7 +12.3 91 +14 +14 1025.5 1017.3
03 22.08 Ю 1-2
{2}
н/о н/о +13.3 +11.9 91 +13 +13 1025.4 1017.2
04 22.08 ЮЗ 1-2
{2}
н/о н/о +13.3 +12.0 92 +13 +13 1025.5 1017.3
05 22.08 ЮЗ 1-2
{2}
н/о н/о +13.1 +11.8 92 +13 +13 1025.7 1017.5
06 22.08 ЮВ 1
{5}
15 км 3/0
[Ac lent Ci]
+13.4 +12.3 93 +14 +15 1026.1 1017.9 +12.8 +17.7
07 22.08 З 1-1
{2}
н/о н/о +14.6 +12.1 85 +16 +16 1026.3 1018.1
08 22.08 ЮЗ 1-2
{2}
н/о н/о +16.5 +12.1 75 +17 +17 1026.4 1018.3
09 22.08 ЮЗ 2-3
{3}
15 км 3/0
[Ac lent Ci]
+17.2 +12.3 73 +18 +24 1026.5 1018.4
10 22.08 ЮЗ 3-4
{4}
н/о н/о +17.6 +11.8 69 +18 +18 1026.8 1018.7
11 22.08 ЮЗ 3-4
{4}
н/о н/о +17.9 +11.9 68 +18 +18 1026.7 1018.6
12 22.08 ЮЗ 3-4
{5}
17 км 3/0
[Ac lent Ci]
+18.4 +12.8 70 +19 +28 1026.7 1018.6
13 22.08 ЮЗ 3-4
{4}
н/о н/о +18.6 +13.7 73 +19 +19 1026.4 1018.3
14 22.08 ЮЗ 4-5
{5}
н/о н/о +18.5 +14.0 75 +19 +19 1026.2 1018.1
15 22.08 ЮЗ 3-5
{5}
20 км 3/0
[Ac lent Ci]
+18.4 +13.5 73 +19 +24 1026.1 1018.0
16 22.08 ЮЗ 3-4
{5}
н/о н/о +18.6 +11.2 62 +19 +19 1026.0 1017.9
17 22.08 ЮЗ 3-4
{4}
н/о н/о +18.4 +12.4 68 +19 +19 1025.8 1017.7
18 22.08 ЮЗ 3-4
{4}
н/о н/о +17.6 +12.5 72 +18 +18 1025.6 1017.5 +13.5 +18.9
19 22.08 ЮЗ 2-4
{4}
н/о н/о +16.8 +12.9 78 +17 +17 1025.9 1017.8
20 22.08 ЮЗ 2-3
{3}
н/о н/о +16.5 +12.8 79 +17 +17 1026.1 1018.0
21 22.08 ЮЗ 2-3
{3}
20 км 1/1 400 м
[Cu hum]
+16.3 +12.8 80 +17 +17 1026.0 1017.9
22 22.08 ЮЗ 2-2
{3}
н/о н/о +16.1 +12.8 81 +16 +16 1026.4 1018.2
23 22.08 Ю 1-1
{3}
н/о н/о +14.8 +12.3 85 +15 +15 1026.3 1018.1
00 23.08 ЮВ 1-2
{2}
н/о н/о +14.5 +12.4 87 +15 +15 1026.3 1018.1
01 23.08 ЮВ 1-2
{2}
н/о н/о +13.9 +11.9 88 +14 +14 1026.2 1018.0
02 23.08 Ю 1-2
{2}
н/о н/о +13.7 +11.7 88 +14 +14 1026.1 1017.9
03 23.08 Ю 2-2
{3}
н/о н/о +13.6 +11.6 88 +13 +13 1026.0 1017.8
04 23.08 ЮВ 3-2
{4}
н/о н/о +13.7 +12.1 90 +13 +13 1025.7 1017.5
05 23.08 Ю 1-1
{2}
н/о н/о +14.0 +12.6 91 +15 +15 1025.8 1017.6
06 23.08 Ю 1
{2}
н/о н/о +15.2 +13.6 90 +16 +16 1026.0 1017.8 +13.5 +17.5
07 23.08 ЮВ 1-1
{1}
н/о н/о +17.3 +13.8 80 +19 +19 1025.9 1017.8
08 23.08 З 1-2
{2}
н/о н/о +17.2 +14.7 85 +19 +19 1026.1 1018.0
09 23.08 З 1-2
{2}
н/о н/о +18.0 +15.4 85 +20 +20 1026.0 1017.9
10 23.08 З 1-2
{2}
н/о н/о +19.1 +16.3 84 +22 +22 комфорт 1025.7 1017.6
11 23.08 СЗ 1-2
{2}
н/о н/о +19.1 +16.1 83 +22 +22 комфорт 1025.5 1017.4
12 23.08 СЗ 2-3
{3}
н/о н/о +18.8 +16.4 86 +21 +21 комфорт 1025.2 1017.1
13 23.08 СЗ 2-3
{3}
н/о н/о +19.1 +16.9 87 +21 +21 комфорт 1024.9 1016.9
14 23.08 СЗ 2-3
{3}
н/о н/о +19.8 +16.6 82 +23 +23 комфорт 1024.4 1016.4
15 23.08 С 2-3
{3}
н/о н/о +20.3 +15.7 75 +24 +24 комфорт 1023.9 1015.9
16 23.08 С 2-3
{3}
н/о н/о +20.8 +16.2 75 +25 +25 комфорт 1023.4 1015.4
17 23.08 СЗ 2-2
{3}
н/о н/о +20.8 +16.8 78 +25 +25 комфорт 1022.8 1014.8
18 23.08 С 1-2
{3}
н/о н/о +20.6 +16.0 75 +25 +25 комфорт 1022.7 1014.7 +15.2 +21.6
19 23.08 СВ 1-2
{2}
н/о н/о +19.8 +14.4 71 +23 +23 комфорт 1022.7 1014.7
20 23.08 СВ 2-3
{4}
н/о н/о +19.3 +12.3 64 +21 +21 комфорт 1022.5 1014.5
21 23.08 В 3-4
{4}
12 км 3/0
[Ci ing]
+19.0 +12.3 65 +20 +20 1022.2 1014.2
22 23.08 В 2-3
{4}
н/о н/о +18.5 +12.5 68 +20 +20 1022.1 1014.0
23 23.08 В 3-4
{4}
н/о н/о +19.0 +13.0 68 +20 +20 1021.7 1013.7
00 24.08 В 2-4
{4}
8000 м 1/0
[Ci ing]
+19.5 +13.0 66 +22 +22 комфорт 1021.4 1013.4
01 24.08 В 2-3
{4}
н/о н/о +19.7 +12.7 64 +22 +22 комфорт 1021.1 1013.1
02 24.08 В 2-3
{4}
н/о н/о +19.7 +12.7 64 +22 +22 комфорт 1020.7 1012.7
03 24.08 В 2-3
{3}
8000 м 1/0
[Ci ing]
+19.2 +12.5 65 +21 +21 комфорт 1020.5 1012.5
04 24.08 В 2-3
{3}
н/о н/о +18.8 +12.5 67 +20 +20 1020.0 1012.0
05 24.08 ЮВ 2-2
{3}
н/о н/о +18.7 +12.2 66 +20 +20 1019.9 1011.9
06 24.08 ЮВ 2
{5}
н/о н/о +20.6 +12.6 60 +24 +24 комфорт 1019.8 1011.8 +18.4 +20.6
07 24.08 ЮВ 1-1
{2}
н/о н/о +21.7 +14.8 65 +25 +25 комфорт 1019.9 1012.0
08 24.08 Ю 1-1
{1}
н/о н/о +21.4 +14.1 63 +24 +24 комфорт 1020.1 1012.1
09 24.08 СЗ 1-1
{1}
6000 м 8/0
[Ci fib]
+22.6 +14.9 62 +26 +32 жарко 1020.0 1012.1
10 24.08 С 1-2
{2}
н/о н/о +22.7 +17.2 71 +28 +28 душно 1019.8 1011.9
11 24.08 С 2-2
{3}
н/о н/о +23.5 +14.5 57 +26 +26 жарко 1019.5 1011.6
12 24.08 С 2-3
{3}
н/о н/о +25.1 +14.2 51 +28 +28 жарко 1018.9 1011.1
13 24.08 С 2-3
{3}
н/о н/о +25.2 +15.5 55 +28 +28 жарко 1018.7 1010.9
14 24.08 С 2-3
{3}
н/о н/о +26.4 +15.7 52 +30 +30 душно 1018.3 1010.5
15 24.08 С 2-3
{3}
8000 м 9/0
[Ci fib]
+26.6 +15.6 51 +30 +34 душно 1018.0 1010.2
16 24.08 С 1-2
{3}
н/о н/о +26.5 +14.6 48 +29 +29 жарко 1017.8 1010.0
17 24.08 С 1-2
{2}
н/о н/о +26.7 +15.1 49 +29 +29 жарко 1017.5 1009.7
18 24.08 С 1
{4}
8000 м 9/0
[Ac As Ci fib]
+25.1 +15.1 54 +28 +28 жарко 1017.4 1009.6 +20.6 +27.1
19 24.08 СВ 1-1
{2}
н/о н/о +24.7 +14.5 53 +27 +27 жарко 1017.4 1009.6
20 24.08 В 1-2
{2}
н/о н/о +23.6 +15.4 60 +27 +27 жарко 1017.5 1009.6
21 24.08 В 2-2
{2}
7000 м ясно +23.1 +14.6 59 +27 +27 душно 1017.5 1009.6
22 24.08 ЮВ 2-3
{3}
н/о н/о +23.4 +13.0 52 +26 +26 жарко 1017.5 1009.6
23 24.08 ЮВ 2-4
{4}
н/о н/о +23.6 +12.3 49 +25 +25 комфорт 1017.4 1009.5
00 25.08 ЮВ 2-4
{4}
н/о н/о +22.8 +12.7 53 +26 +26 жарко 1017.4 1009.5
01 25.08 ЮВ 2-3
{4}
н/о н/о +21.7 +13.1 58 +24 +24 комфорт 1017.2 1009.3
02 25.08 ЮВ 2-3
{4}
н/о н/о +21.3 +13.2 60 +24 +24 комфорт 1017.2 1009.3
03 25.08 ЮВ 2-3
{3}
15 км 3/0
[Ac As]
+21.8 +12.9 57 +24 +24 комфорт 1017.3 1009.4
04 25.08 ЮВ 2-2
{3}
н/о н/о +21.9 +13.0 57 +25 +25 комфорт 1017.2 1009.3
05 25.08 ЮВ 2-2
{3}
н/о н/о +22.5 +13.0 55 +25 +25 комфорт 1017.3 1009.4
06 25.08 ЮВ 2
{5}
16 км 6/0
[Ac As]
+22.1 +13.2 57 +25 +25 комфорт 1017.6 1009.7 +21.1 +25.1
07 25.08 ЮВ 2-2
{3}
н/о н/о +22.2 +13.5 58 +25 +25 комфорт 1018.1 1010.2
08 25.08 ЮВ 1-2
{2}
н/о н/о +26.2 +14.6 49 +29 +29 жарко 1018.3 1010.5
09 25.08 Ю 1-1
{2}
9000 м 1/1 1000 м
[Cu hum]
+26.8 +14.9 48 +29 +38 жарко 1018.7 1010.9
10 25.08 З 1-1
{2}
н/о н/о +26.1 +14.5 49 +29 +29 жарко 1018.7 1010.9
11 25.08 З 1-2
{2}
н/о н/о +26.3 +13.8 46 +28 +28 жарко 1018.6 1010.8
12 25.08 СЗ 1-2
{2}
н/о н/о +26.7 +13.8 45 +29 +29 жарко 1018.5 1010.7
13 25.08 СЗ 1-2
{2}
н/о н/о +26.0 +15.1 51 +29 +29 душно 1018.7 1010.9
14 25.08 С 2-2
{3}
н/о н/о +27.0 +14.4 46 +29 +29 жарко 1018.6 1010.8
15 25.08 СЗ 2-2
{3}
14 км ясно +28.2 +13.3 40 +30 +37 жарко 1018.4 1010.6
16 25.08 С 2-2
{3}
н/о н/о +28.3 +13.8 41 +30 +30 жарко 1018.3 1010.5
17 25.08 С 1-2
{2}
н/о н/о +28.7 +12.2 36 +30 +30 жарко 1018.2 1010.4
18 25.08 СВ 2 15 км 1/0
[Ac lent]
+27.2 +13.5 43 +29 +29 жарко 1018.3 1010.5 +21.8 +29.0
19 25.08 В 3-4
{4}
н/о н/о +25.1 +13.3 48 +27 +27 жарко 1018.5 1010.7
20 25.08 В 3-4
{4}
н/о н/о +24.0 +12.9 50 +26 +26 жарко 1019.1 1011.2
21 25.08 В 3-4
{4}
12 км ясно +23.3 +12.6 51 +26 +26 жарко 1019.2 1011.3

 

Местоположение метеостанции Булонь-сюр-Мер (Франция): широта 50.73 долгота 1.60 высота над уровнем моря 74 м.

В архиве по умолчанию представлена погода в Булонь-сюр-Мере за последнюю неделю. Архивные данные за месяц целиком и за предыдущие месяцы, начиная с января 2011 года, Вы можете получить, выбрав интересующий диапазон дат из раскрывающегося списка и нажав кнопку "Ввод!".


*Определитесь, кто Вы:
робот инопланетянин человек

Внимание! Время в таблицах - всемирное. Для получения местного времени необходимо прибавить поправку, которая равна 1 ч.

Смотрите также архив погоды в соседних городах и на ближайших метеорологических станциях:

Погода в Ле-Туке-Пари-Плаже (Франция) (23 км)
Погода в Заливе Лангдон (Великобритания) (48 км)
Погода в Дюнкерке (Франция) (62 км)
Погода в Аббевилле (Франция) (69 км)
Погода в Кент (Великобритания) (71 км)
Погода в Коксейде (Бельгия) (83 км)
Погода в Херстмонсо (Великобритания) (92 км)
Погода в Дьеппе (Франция) (96 км)
Погода в Остенде (Бельгия) (103 км)
Погода в Шоберинессе (Великобритания) (106 км)

Пояснения к столбцам:

Ветер - указаны скорость ветра в м/с - средняя за 10 мин, порывы в срок и между сроками (в фигурных скобках) и направление, откуда дует ветер: С - северный, СВ - северо-восточный, В - восточный, ЮВ - юго-восточный, Ю - южный, ЮЗ - юго-западный, З - западный, СЗ - северо-западный.
Видимость - горизонтальная дальность видимости в метрах или километрах. При видимости от 1 до 10 км при отсутствии осадков обычно наблюдается дымка, при ухудшении видимости до 1 км и менее - туман. В сухую погоду видимость может ухудшаться дымом, пылью или мглою.
Явления - указаны атмосферные явления, наблюдавшиеся в срок или в последний час перед сроком; фигурными скобками обозначены явления, наблюдавшиеся между сроками (за 1-3 часа до срока); квадратными скобками обозначены град или гололедные отложения с указанием их диаметра в мм.
Облачность - указаны через наклонную черту общая и нижняя облачность в баллах и высота нижней границы облаков в метрах; квадратными скобками обозначены формы облаков: Ci - перистые, Cs - перисто-слоистые, Cc - перисто-кучевые, Ac - высококучевые, As - высокослоистые, Sc - слоисто-кучевые, Ns - слоисто-дождевые, Cu - кучевые, Cb - кучево-дождевые. Подробнее классификацию облаков см. в Атласе облаков (PDF).
T - Температура воздуха - температура, измеренная на высоте 2 м над землей.
Td - Температура точки росы - температура, при понижении до которой содержащийся в воздухе водяной пар достигнет насыщения.
f - Относительная влажность воздуха - влажноcть воздуха, измеренная на высоте 2 м над землей.
Te - Эффективная температура - температура, которую ощущает одетый по сезону человек в тени. Характеристика душности погоды. При расчете учитывается влияние влажности воздуха и скорости ветра на теплоощущения человека.
Tes - Эффективная температура на солнце - температура, которую ощущает человек, с поправкой на солнечный нагрев. Характеристика знойности погоды. Зависит от высоты солнца над горизонтом, облачности и скорости ветра. Ночью, в пасмурную погоду, а также при ветре 12 м/с и более поправка равна нулю.
P - Атмосферное давление - приведенное к уровню моря атмосферное давление.
Po - Атмосферное давление - измеренное на уровне метеостанции атмосферное давление.
Tmin - Минимальная температура - минимум температуры воздуха на высоте 2 м над землей.
Tmax - Максимальная температура - максимум температуры воздуха на высоте 2 м над землей.
R - Количество осадков - Количество выпавших осадков за период времени, мм. При наведении курсора мыши на число - период времени, за который выпало указанное количество осадков.
R24 - Количество осадков - Количество выпавших осадков за 24 часа, мм.
S - Снежный покров - Высота снежного покрова, см. При наведении курсора мыши на число - состояние снежного покрова и степень покрытия местности в баллах.